Погода в Любани

Погода в Любани : погода сейчас, прогноз погоды и архив. Всё, что Вы хотите узнать о погоде в Любани!

Поиск расширенной информации на нашем сайте:

Другие новости

Новости СМИ2

Главная страница сайта

Новости сайта

03.07.2017

Напоминаем, что на нашем специализированном сайте Метеоцентр.Азия вы можете получить высокодетализированные автоматические прогнозы погоды по пунктам России, СНГ и мира в авиационном формате (включающие направление и скорость ветра, видимость, явления погоды, количество и форму облачности, нижнюю и верхнюю границу облачности).


Погода в Любани - сегодня

Время (UTC), дата Ветер
(°,м/с) 
Видим.   Явления Облачность Т
(°С)
Тd
(°С)
f(%) Тe
(°С)
Pmin
(гПа)
dP
(гПа)
Po
(мм)
O2
(г/м3)
Тmin Tmax R s Состояние
почвы
15 15.04.18 тихо ()   н/о    н/о 
+18.7 -3.7 22 +19  1018.5  -1  760  287           
21 15.04.18 тихо ()   н/о    н/о 
+2.2 -1 79 +2  1019  0.1  761  304           
00 16.04.18 тихо ()   н/о    н/о 
+0.1 -1.9 86 1018.4  -0.6  760  306           
03 16.04.18 тихо ()   н/о    н/о 
+0.4 -2 84 1017.6  -0.8  759  306  -0.1         
09 16.04.18 330 (СЗ) н/о    н/о 
+16.6 +6.6 52 +18  1017.3  759  287           
12 16.04.18 тихо ()   н/о    н/о 
+17.2 +6.9 51 +17  1017.1  -0.3  759  287           
15 16.04.18 тихо ()   н/о    н/о 
+15.4 +8.8 65 +15  1016.2  -0.9  759  288           
00 17.04.18 тихо ()   н/о    н/о 
+4.7 +2.8 87 +5  1015.5  -0.3  758  300           
03 17.04.18 тихо ()   н/о    н/о 
+5.5 +4.1 91 +6  1014.4  -1.1  757  298  +4         
09 17.04.18 тихо ()   н/о    н/о 
+12.6 +8.8 78 +13  1013.3  -0.5  756  290           
12 17.04.18 150 (ЮВ) н/о    н/о 
+14.9 +9.1 68 +16  1012.3  -0.9  756  287           
15 17.04.18 040 (СВ) н/о    н/о 
+11.8 +11 95 +15  1010.6  -1.8  754  289           
21 17.04.18 310 (СЗ) н/о    н/о 
+7.7 +7.2 97 +7  1007.8  -1.3  752  294           
00 18.04.18 310 (СЗ) н/о    н/о 
+6.5 +6 97 +6  1008.2  0.3  752  295           
03 18.04.18 310 (СЗ) н/о    н/о 
+5.7 +5.1 96 +5  1008.8  0.6  753  296  +5.7         
09 18.04.18 360 (С) н/о    н/о 
+7.9 +7.2 95 +7  1011.3  1.3  755  294           
12 18.04.18 350 (С) н/о    н/о 
+7.5 +4.2 80 +7  1013.8  2.5  757  296           
15 18.04.18 340 (С) н/о    н/о 
+8.3 +3.5 72 +8  1014.9  1.1  758  296           
21 18.04.18 320 (СЗ) н/о    н/о 
+4.7 +3.5 92 +6  1016  0.3  758  300           
00 19.04.18 тихо ()   н/о    н/о 
+2.3 +1.5 94 +2  1015.5  -0.6  758  303           
03 19.04.18 350 (С) н/о    н/о 
+2 +1.6 97 +3  1015  -0.5  758  303  -0.8         
09 19.04.18 360 (С) н/о    н/о 
+13.6 +2.5 47 +14  1016.3  1.1  759  291           
12 19.04.18 010 (С) н/о    н/о 
+16.2 -0.7 32 +17  1017  0.7  759  289           
15 19.04.18 360 (С) 3{10}  н/о    н/о 
+15.2 -1.9 31 +15  1017.8  0.8  760  290           
21 19.04.18 тихо ()   н/о    н/о 
+3.9 +0.7 80 +4  1019.5  0.4  761  302           
Время (UTC), дата Ветер
(°,м/с) 
Видим.   Явления Облачность Т
(°С)
Тd
(°С)
f(%) Тe
(°С)
Pmin
(гПа)
dP
(гПа)
Po
(мм)
O2
(г/м3)
Тmin Tmax R s Состояние
почвы

Для получения пояснительной информации подведите курсор к названию столбца.

ПОГОДА в Любани - архив

Всё, что Вы хотите узнать о погоде в Любани - удобно и подробно!

Выберите нужную дату (начиная с 1 января 2015* года) и нажмите кнопку "Найти".
Будут отображены архивные сводки погоды по пункту Любань, начиная с указанной даты.


Отображать данные в формате CSV (для использования в таблицах Excel)


Внимание! Наш архив погоды предназначен исключительно для личного некоммерческого использования в познавательных целях. Если Вам необходимы официальные справки о состоянии погоды (для производственных, юридических, коммерческих и т.п. целей), обращайтесь в органы Росгидромета.

*Примечание: данная дата относится к архиву по метеостанциям СССР (Россия, СНГ, Балтия).
Архив по метеостанциям Зарубежной Европы и Азии (кроме Китая) хранится 10 дней, по другим регионам земного шара (Китай, Африка, Америка, Австралия, Океания) - 1 день.

Любань - район местоположения метеостанции


Название, широта, долгота, высота метеостанции:
Любань 59.3°ш. 31.2°д. 39 м над ур. моря [Российская Федерация]

Дополнительная информация

В oтличие oт бoльшинства пoгoдных сайтoв мы публикуем пoдрoбную метеoинфoрмацию в детальнoм прoфессиoнальнoм фoрмате.

Характеристики температуры и влажнoсти вoздуха измеряются на высoте 2 м в тени вдали oт зданий и деревьев.
Скoрoсть ветра измеряется на высoте 10 м (на урoвне рoста челoвека скoрoсть ветра ниже в 1.5-2 раза). Если метеoстанция нахoдится в гoрoде или в лесу, тo скoрoсть ветра занижена на 2-4 м/с пo сравнению с oткрытым местoм. Скoрoсть ветра над акватoриями крупных рек и oзёр, а также на вершинах хoлмoв на 2-5 м/с выше, чем в oбычных услoвиях.
Атмoсфернoе давление в разных тoчках местнoсти мoжет значительнo oтличаться oт давления на метеoстанции, в зависимoсти oт услoвий рельефа (при пoдъёме на 10 м давление пoнижается примернo на 1 мм рт.ст.).